Location: Arthez
(43.0833°N, 0.2500°W)
Time: 04:16:05
(UTC+00:00)

ATLAS 5 CENTAUR R/B - Pass Details

Date: 23 October 2021
Orbit: 497 x 1159 km, 63.4° (Epoch: 25 November)

Event Time Altitude Azimuth Distance (km) Brightness Sun altitude
Rises 18:06:49 0° 246° (WSW) 2,604 6.3 -11.8°
Reaches altitude 10° 18:09:07 10° 259° (W) 1,760 5.4 -12.3°
Maximum altitude 18:12:29 27° 319° (NW) 1,089 3.2 -12.9°
Drops below altitude 10° 18:16:14 10° 18° (NNE) 1,975 3.9 -13.6°
Enters shadow 18:18:15 - 28° (NNE) 2,715 4.5 -13.9°
